SCP
0 0 0 0 0 0 0 0 0 0 0 0 0 0 0 0 0 0 0 0 0 0 0 0 0 0 0 0 0 0 0 0 0 0 0 0 0 0 0 0 0 0 0
0 0 0 0 0 0 0 0 0 0 0 0 0 0 0 0 0 0 0 0 0 0 0 0 0 0 0 0 0 0 0 0 0 0 0 0 0 0 0 0 0 0 0
0 0 0 0 0 0 0 0 0 0 0 0 0 0 0 0 0 0 0 0 0 0 0 0 0 0 0 0 0 0 0 0 0 0 0 0 0 0 0 0 0 0 0
0 0 0 0 0 0 0 0 0 0 0 0 0 0 0 0 0 0 0 0 0 0 0 0 0 0 0 0 0 0 0 0 0 0 0 0 0 0 0 0 0 0 0
0 0 0 0 0 0 0 0 0 0 0 0 0 0 0 0 0 0 0 0 0 0 0 0 0 0 0 0 0 0 0 0 0 0 0 0 0 0 0 0 0 0 0
0 0 0 0 0 0 0 0 0 0 0 0 0 0 0 0 0 0 0 0 0 0 0 0 0 0 0 0 0 0 0 0 0 0 0 0 0 0 0 0 0 0 0
0 0 0 0 0 0 0 0 0 0 0 0 0 0 0 0 0 0 0 0 0 0 0 0 0 0 0 0 0 0 0 0 0 0 0 0 0 0 0 0 0 0 0
0 0 0 0 0 0 0 0 0 0 0 0 0 0 0 0 0 0 0 0 0 0 0 0 0 0 0 0 0 0 0 0 0 0 0 0 0 0 0 0 0 0 0
0 0 0 0 0 0 0 0 0 0 0 0 0 0 0 0 0 0 0 0 0 0 0 0 0 0 0 0 0 0 0 0 0 0 0 0 0 0 0 0 0 0 0
0 0 0 0 0 0 0 0 0 0 0 0 0 0 0 0 0 0 0 0 0 0 0 0 0 0 0 0 0 0 0 0 0 0 0 0 0 0 0 0 0 0 0
0 0 0 0 0 0 0 0 0 0 0 0 0 0 0 0 0 0 0 0 0 0 0 0 0 0 0 0 0 0 0 0 0 0 0 0 0 0 0 0 0 0 0
0 0 0 0 0 0 0 0 0 0 0 0 0 0 0 0 0 0 0 0 0 0 0 0 0 0 0 0 0 0 0 0 0 0 0 0 0 0 0 0 0 0 0
0 0 0 0 0 0 0 0 0 0 0 0 0 0 0 0 0 0 0 0 0 0 0 0 0 0 0 0 0 0 0 0 0 0 0 0 0 0 0 0 0 0 0
0 0 0 0 0 0 0 0 0 0 0 0 0 0 0 0 0 0 0 0 0 0 0 0 0 0 0 0 0 0 0 0 0 0 0 0 0 0 0 0 0 0 0
0 0 0 0 0 0 0 0 0 0 0 0 0 0 0 0 0 0 0 0 0 0 0 0 0 0 0 0 0 0 0 0 0 0 0 0 0 0 0 0 0 0 0
0 0 0 0 0 0 0 0 0 0 0 0 0 0 0 0 0 0 0 0 0 0 0 0 0 0 0 0 0 0 0 0 0 0 0 0 0 0 0 0 0 0 0
0 0 0 0 0 0 0 0 0 0 0 0 0 0 0 0 0 0 0 0 0 0 0 0 0 0 0 0 0 0 0 0 0 0 0 0 0 0 0 0 0 0 0
0 0 0 0 0 0 0 0 0 0 0 0 0 0 0 0 0 0 0 0 0 0 0 0 0 0 0 0 0 0 0 0 0 0 0 0 0 0 0 0 0 0 0
0 0 0 0 0 0 0 0 0 0 0 0 0 0 0 0 0 0 0 0 0 0 0 0 0 0 0 0 0 0 0 0 0 0 0 0 0 0 0 0 0 0 0
0 0 0 0 0 0 0 0 0 0 0 0 0 0 0 0 0 0 0 0 0 0 0 0 0 0 0 0 0 0 0 0 0 0 0 0 0 0 0 0 0 0 0
0 0 0 0 0 0 0 0 0 0 0 0 0 0 0 0 0 0 0 0 0 0 0 0 0 0 0 0 0 0 0 0 0 0 0 0 0 0 0 0 0 0 0
0 0 0 0 0 0 0 0 0 0 0 0 0 0 0 0 0 0 0 0 0 0 0 0 0 0 0 0 0 0 0 0 0 0 0 0 0 0 0 0 0 0 0
0 0 0 0 0 0 0 0 0 0 0 0 0 0 0 0 0 0 0 0 0 0 0 0 0 0 0 0 0 0 0 0 0 0 0 0 0 0 0 0 0 0 0
0 0 0 0 0 0 0 0 0 0 0 0 0 0 0 0 0 0 0 0 0 0 0 0 0 0 0 0 0 0 0 0 0 0 0 0 0 0 0 0 0 0 0
0 0 0 0 0 0 0 0 0 0 0 0 0 0 0 0 0 0 0 0 0 0 0 0 0 0 0 0 0 0 0 0 0 0 0 0 0 0 0 0 0 0 0
0 0 0 0 0 0 0 0 0 0 0 0 0 0 0 0 0 0 0 0 0 0 0 0 0 0 0 0 0 0 0 0 0 0 0 0 0 0 0 0 0 0 0
Wind_Speed
8 10 11 12 12 12 12 11 11 11 11 11 11 11 11 11 10 9 10 10 10 10 10 10 10 10 9 9 9 8 8 8 7 6 6 7 7 8 9 10 10 7 10
12 12 12 12 12 12 12 12 11 11 11 11 11 10 10 10 9 9 9 9 9 9 9 9 9 9 9 9 8 8 8 7 6 5 4 4 6 8 9 10 10 7 10
13 12 12 13 13 12 12 12 12 11 11 11 11 10 10 9 9 9 9 9 9 9 9 9 9 9 9 9 8 7 7 6 6 6 5 1 4 8 9 9 10 10 10
14 12 12 13 13 13 13 13 12 12 12 11 11 11 10 10 10 9 9 9 9 8 8 8 8 8 8 8 7 7 6 7 8 7 3 4 5 9 9 9 9 9 9
14 12 12 13 13 13 13 13 12 12 12 11 11 10 10 9 10 9 9 8 8 8 8 7 7 7 7 7 6 6 6 8 9 6 2 4 5 8 9 9 9 9 9
14 12 11 13 13 13 13 13 12 12 11 10 10 9 9 9 9 8 8 8 7 7 7 7 6 6 6 6 6 6 7 7 7 2 3 4 4 8 9 9 8 8 9
13 12 12 13 13 13 13 12 12 11 10 10 9 9 8 8 8 7 7 7 6 6 6 6 5 5 5 5 5 6 6 8 4 2 2 4 5 8 8 8 8 8 8
13 12 12 13 14 13 12 11 11 10 9 9 8 7 6 6 6 6 6 6 6 5 5 5 5 4 4 4 4 5 6 7 4 2 3 4 7 8 8 7 7 7 8
10 11 10 10 11 12 12 10 9 8 7 6 5 4 3 4 4 4 6 5 5 5 5 4 4 3 3 3 4 5 6 6 4 2 3 5 7 8 7 7 7 7 7
7 8 9 9 10 9 8 9 8 7 6 4 3 3 3 3 3 3 5 4 4 3 3 2 2 2 3 4 5 6 6 6 3 1 3 6 8 8 6 6 6 6 6
6 6 6 6 6 7 8 9 8 6 5 5 5 6 4 3 4 4 5 4 1 0 1 3 4 4 5 6 8 8 6 2 1 3 4 8 8 7 6 5 5 6 6
6 6 6 6 5 5 4 5 4 4 3 2 1 1 0 1 1 3 5 4 3 3 3 6 7 6 6 4 6 7 3 2 1 4 5 9 8 7 6 5 5 5 6
6 5 5 5 4 5 3 3 1 1 2 2 1 2 2 2 1 2 2 3 3 3 2 3 5 4 2 1 1 2 1 1 2 4 5 8 7 6 5 5 5 5 6
6 5 4 5 5 6 4 2 2 2 2 2 3 3 2 1 2 2 1 1 1 1 1 2 2 2 2 2 1 1 2 2 3 3 4 8 7 6 5 5 5 5 5
6 5 5 5 6 5 3 1 4 3 2 3 2 2 3 2 2 2 1 1 2 2 2 2 2 3 3 2 3 3 3 2 3 4 3 6 7 6 6 5 5 5 5
6 6 5 5 4 5 3 3 4 3 2 3 2 2 3 2 3 3 2 2 2 2 2 2 3 2 2 2 3 3 3 2 3 4 4 4 6 5 5 5 6 5 6
7 7 5 4 5 6 5 4 3 3 3 3 2 3 3 3 4 4 3 3 2 3 3 3 4 3 2 2 2 2 3 3 3 3 3 4 4 4 5 5 5 5 6
7 8 5 5 6 6 5 3 3 4 3 3 3 4 5 5 5 4 3 3 3 3 3 2 3 3 3 3 2 2 3 3 3 2 2 3 3 3 4 5 5 5 5
7 8 7 6 6 6 4 3 4 4 3 4 4 4 5 6 6 4 3 3 4 3 3 4 3 2 3 2 1 2 2 3 2 3 3 3 3 3 3 4 4 4 4
5 6 8 6 5 5 2 3 3 3 3 4 4 3 4 4 5 4 3 5 4 3 3 3 3 3 2 2 2 3 2 2 2 3 3 3 2 2 3 4 3 3 4
4 5 7 7 6 4 2 2 2 2 3 3 3 3 3 4 4 3 3 3 3 3 4 4 3 4 3 2 3 3 2 3 3 2 2 2 3 2 2 3 2 2 2
5 5 7 6 5 5 2 2 3 3 3 3 2 3 4 5 5 4 4 3 3 3 4 4 4 3 3 3 2 2 2 3 4 2 2 2 2 2 2 3 2 2 2
5 5 6 7 6 5 4 3 3 3 2 2 3 3 4 4 5 5 5 3 3 3 3 3 4 4 3 3 3 2 2 1 2 3 3 3 3 2 2 2 3 3 3
6 5 6 6 6 5 5 3 3 2 2 2 3 2 3 4 4 4 4 4 4 4 4 4 4 3 3 3 3 2 2 2 1 1 3 3 3 3 3 3 4 4 4
6 5 5 6 7 6 5 3 2 2 2 2 3 3 3 3 3 3 3 3 4 3 4 4 4 4 3 3 2 2 3 2 2 2 1 2 3 3 3 3 3 3 4
6 6 5 7 6 5 4 4 3 4 3 3 3 2 2 2 2 3 3 4 4 3 4 3 3 4 3 4 3 3 2 2 2 2 1 1 1 2 3 3 3 3 3
Wind_Direction
94 91 87 86 86 85 86 86 86 86 86 85 82 81 79 75 74 73 72 70 68 66 61 57 55 53 51 49 47 47 47 47 48 52 56 58 62 59 52 45 43 47 46
99 93 87 87 87 86 85 85 84 84 84 83 82 81 80 77 75 73 72 70 68 66 62 59 55 52 48 45 43 41 39 35 27 24 35 53 67 64 58 52 48 45 44
97 97 89 85 85 86 86 84 83 83 83 82 81 80 78 76 75 73 69 68 67 64 61 57 54 50 46 41 36 32 25 14 1 351 342 47 86 72 64 55 50 48 44
95 89 87 86 84 84 84 85 85 84 83 81 80 79 78 76 74 71 69 68 66 63 59 55 50 45 42 38 30 21 10 354 344 340 6 64 75 74 64 56 49 47 44
94 92 89 88 86 86 85 84 83 82 81 80 78 77 76 75 73 70 68 66 62 57 54 50 45 39 33 28 22 11 356 342 334 333 45 71 73 72 66 57 49 46 45
101 98 94 92 90 88 85 84 84 82 80 78 76 75 74 73 72 69 68 62 56 51 46 44 40 33 29 21 13 1 347 337 326 342 70 80 83 75 68 59 50 47 43
106 106 104 100 96 92 88 85 84 83 81 79 77 75 74 72 71 67 67 61 52 46 40 36 31 27 25 16 5 352 338 329 298 299 84 89 92 83 72 60 52 48 43
112 112 114 111 107 101 94 90 87 84 82 81 81 82 84 86 84 75 65 55 44 38 33 27 21 18 12 0 346 333 326 321 330 20 89 96 97 86 73 62 53 49 45
119 127 130 130 120 113 109 105 100 95 92 94 99 105 108 109 104 94 76 56 41 31 21 17 10 1 349 327 311 305 306 312 315 315 86 91 95 86 75 65 56 54 46
117 124 133 135 138 138 131 127 127 128 131 138 162 191 188 177 154 140 107 78 52 30 10 347 330 307 295 284 279 281 289 304 288 54 87 97 93 88 78 68 60 60 49
119 120 122 123 135 140 142 143 157 162 173 182 207 238 232 202 181 174 110 123 122 279 286 277 274 269 268 266 260 265 280 260 198 101 80 95 92 87 78 69 66 64 54
131 125 128 130 130 115 105 135 159 156 161 173 147 184 222 88 79 93 132 175 208 232 257 258 261 262 255 246 240 245 262 253 138 102 93 95 90 84 79 72 70 70 63
121 121 120 113 111 112 102 100 89 95 110 75 26 81 50 33 57 109 165 192 222 215 253 261 251 241 233 209 202 215 214 52 72 89 100 98 94 87 82 76 72 74 69
111 108 105 109 100 86 81 103 105 73 73 54 9 48 65 37 29 38 62 26 357 34 331 314 299 338 9 13 25 29 44 63 80 95 111 107 105 101 94 83 75 74 71
109 102 84 81 89 96 94 101 95 67 63 95 18 30 60 49 36 14 77 48 27 10 7 332 341 19 4 15 30 45 39 52 87 93 107 113 112 107 102 93 82 76 75
124 114 101 100 110 124 123 94 85 110 107 78 33 52 57 57 50 23 36 41 27 9 1 352 7 16 10 24 26 26 46 36 78 104 123 115 109 105 102 97 92 82 78
127 117 107 105 84 73 65 60 85 71 70 68 32 30 64 58 55 38 25 20 11 11 15 13 9 5 16 32 34 46 64 38 60 82 114 126 120 109 105 97 91 86 79
129 121 119 104 90 82 73 49 64 64 57 62 43 18 26 48 63 47 15 12 26 20 11 20 25 9 13 26 24 29 54 48 51 61 80 114 125 128 119 108 94 85 81
128 134 135 106 97 92 102 98 66 75 58 64 56 29 17 29 47 46 19 22 24 30 14 17 30 14 19 14 21 71 57 64 42 46 49 76 90 114 125 124 111 93 86
119 125 116 109 109 112 96 91 79 63 60 62 65 47 27 28 41 34 32 30 25 30 18 24 26 16 22 11 29 65 71 74 67 51 42 50 67 78 108 126 126 111 94
132 127 127 138 131 121 109 98 94 89 83 71 72 40 34 40 36 54 37 37 33 34 31 30 23 19 15 26 42 31 35 52 61 76 56 49 60 56 73 105 119 120 116
151 156 144 128 119 113 105 105 111 96 93 94 80 54 44 42 23 29 40 40 42 41 33 34 38 27 12 27 52 59 33 16 7 41 60 59 54 42 55 76 87 91 105
164 169 135 126 125 121 108 75 71 70 80 97 92 62 50 51 39 25 25 27 42 52 47 44 43 41 27 11 41 69 90 62 340 0 30 42 36 43 52 49 76 74 83
168 157 132 124 117 109 108 95 107 106 92 84 102 118 90 66 56 28 19 24 41 45 40 41 45 36 41 22 9 23 65 109 110 24 358 17 30 39 45 47 52 57 69
149 128 115 111 109 106 108 112 96 93 102 98 97 102 99 86 78 46 25 27 43 52 51 51 44 41 40 38 24 13 18 21 44 91 42 359 13 21 43 51 53 51 58
131 123 115 110 109 116 133 141 128 114 112 104 99 103 113 113 94 68 48 37 42 49 48 48 54 48 45 42 37 32 35 34 20 48 78 55 38 5 45 56 58 57 66